[[{"header":{"parameterUnit":"m.s-1","parameterCategory":1,"la1":30.2992,"la2":30.254,"lo1":-89.0895,"lo2":-89.0443,"dy":0.0025,"dx":0.0025,"nx":19,"ny":19,"refTime":"2026-03-27T09:00:00:Z","depth":0,"parameterNumber":2,"parameterNumberName":"U-component_of_WINDS"},"data":[0,0,0,0.7571,0.7572,0.7631,0.7631,0.7706,0.7707,0,0,0,0,0,0,0,0,0,0,0,0.7553,0.7553,0.7571,0.7572,0.7631,0.7631,0.7706,0.7707,0,0,0,0,0,0,0,0,0,0,0,0.7553,0.7553,0.7554,0.7573,0.7631,0.7631,0.7706,0.7662,0,0,0,0,0,0,0,0,0,0,0.7605,0.7588,0.7553,0.7554,0.7573,0.7631,0.7631,0.766,0.7665,0.7679,0,0.7692,0,0.77,0.7712,0.7712,0,0,0,0.7573,0.7583,0.76,0.7554,0.7573,0.763,0.7605,0.7662,0.7668,0.7686,0.7693,0.7696,0.7702,0.7712,0.7713,0.7793,0.7794,0,0,0.757,0.7563,0.7596,0.7603,0.7593,0.7603,0.7606,0.7666,0.7673,0.7693,0.7697,0.7703,0.7713,0.7713,0.7793,0.7794,0,0,0,0.756,0.7561,0.7576,0.76,0.7611,0.7604,0.7609,0.7671,0.7676,0.7698,0.7704,0.7713,0.7714,0.7793,0.7793,0.7803,0,0,0,0.7558,0.7555,0.7574,0.7571,0.7609,0.7641,0.7612,0.7672,0.7679,0.7703,0.7713,0.7715,0.7792,0.7793,0.7802,0.7809,0,0,0,0.7549,0.7554,0.7562,0.7571,0.7595,0.764,0.7649,0.7673,0.7682,0.7712,0.7715,0.7792,0.7793,0.7801,0.7808,0.7828,0,0,0,0.7539,0.7571,0.7563,0.7601,0.7595,0.7646,0.7649,0.7687,0.7714,0.7714,0.7792,0.7793,0.7801,0.7807,0.7827,0.7844,0.785,0,0,0.7576,0.7576,0.7599,0.7593,0.7643,0.7637,0.769,0.7721,0.7731,0.7772,0.7774,0.7803,0.7808,0.7828,0.7889,0.7894,0,0,0,0.7609,0.7625,0.764,0.7665,0.7689,0.771,0.7734,0.7746,0.7781,0.775,0.7816,0.7819,0.7831,0.784,0.7844,0.7855,0.7797,0.7797,0.7797,0.7653,0.7662,0.7701,0.7718,0.7742,0.7766,0.7786,0.7806,0.7809,0.7824,0.7837,0.7873,0.7882,0.7886,0.7897,0.7847,0.7847,0.7847,0.7847,0.7709,0.7734,0.7736,0.7775,0.7785,0.7818,0.7842,0.7843,0.7876,0.7864,0.7876,0.7862,0.7891,0.7901,0.7848,0.7848,0.7847,0.7847,0.7847,0.7739,0.7752,0.7765,0.7802,0.7829,0.7845,0.7875,0.7884,0.7892,0.7903,0.7917,0.7916,0.7917,0.7909,0.7909,0.7909,0.7909,0.7909,0.7909,0.7764,0.7779,0.7803,0.7831,0.7848,0.7871,0.7895,0.7912,0.7933,0.7937,0.7937,0.7938,0.7892,0.788,0.7911,0.7911,0.7911,0.7911,0.791,0.7817,0.7807,0.7844,0.7861,0.7894,0.7921,0.7931,0.7964,0.798,0.7995,0.7994,0.7958,0.7958,0.7955,0.7945,0.7992,0.7992,0.7992,0.7992,0.7842,0.7843,0.7883,0.7909,0.7936,0.7948,0.7991,0.801,0.8029,0.8039,0.8033,0.8021,0.8017,0.802,0.8015,0.8006,0.8067,0.8067,0.8067,0.7875,0.7879,0.7913,0.793,0.7957,0.7979,0.802,0.805,0.8069,0.807,0.8047,0.8044,0.8024,0.8017,0.8018,0.801,0.7993,0,0]},{"header":{"parameterUnit":"m.s-1","parameterCategory":1,"la1":30.2992,"la2":30.254,"lo1":-89.0895,"lo2":-89.0443,"dy":0.0025,"dx":0.0025,"nx":19,"ny":19,"refTime":"2026-03-27T09:00:00:Z","depth":0,"parameterNumber":3,"parameterNumberName":"V-component_of_WINDS"},"data":[0,0,0,1.7872,1.7874,1.799,1.799,1.8138,1.814,0,0,0,0,0,0,0,0,0,0,0,1.7835,1.7836,1.7872,1.7874,1.799,1.799,1.8138,1.814,0,0,0,0,0,0,0,0,0,0,0,1.7835,1.7836,1.7837,1.7875,1.799,1.799,1.8138,1.8051,0,0,0,0,0,0,0,0,0,0,1.7939,1.7902,1.7836,1.7837,1.7875,1.799,1.7991,1.8047,1.8057,1.8085,0,1.8108,0,1.8126,1.8149,1.815,0,0,0,1.7877,1.7894,1.7927,1.7837,1.7877,1.7989,1.7938,1.8052,1.8063,1.8098,1.811,1.8116,1.8129,1.815,1.8151,1.8305,1.8305,0,0,1.787,1.7855,1.792,1.7934,1.7914,1.7935,1.7942,1.8059,1.8072,1.8111,1.8119,1.8131,1.8151,1.8152,1.8304,1.8305,0,0,0,1.785,1.785,1.7881,1.7928,1.7949,1.7938,1.7946,1.8067,1.8078,1.8121,1.8133,1.8152,1.8154,1.8303,1.8304,1.8319,0,0,0,1.7847,1.7839,1.7878,1.787,1.7946,1.8009,1.7952,1.807,1.8084,1.8132,1.8152,1.8155,1.8303,1.8304,1.8317,1.8329,0,0,0,1.7829,1.7837,1.7852,1.7869,1.7918,1.8007,1.8025,1.8073,1.8091,1.815,1.8156,1.8302,1.8304,1.8316,1.8326,1.8366,0,0,0,1.7805,1.7864,1.7852,1.7923,1.7917,1.8015,1.8024,1.8099,1.8151,1.8153,1.8303,1.8304,1.8315,1.8325,1.8364,1.8396,1.8408,0,0,1.7871,1.7871,1.7915,1.7907,1.8003,1.7998,1.8098,1.8161,1.8182,1.8263,1.8267,1.8318,1.8326,1.8365,1.8478,1.8487,0,0,0,1.793,1.7961,1.799,1.8038,1.8087,1.8132,1.8181,1.8205,1.8275,1.8219,1.8343,1.8348,1.8372,1.8388,1.8396,1.8418,1.8311,1.8311,1.831,1.8002,1.8024,1.8098,1.8135,1.8182,1.8233,1.8274,1.8316,1.8325,1.8354,1.8378,1.8444,1.8462,1.8468,1.8491,1.8397,1.8397,1.8397,1.8397,1.8102,1.8149,1.816,1.8235,1.826,1.8324,1.8377,1.8382,1.8447,1.8427,1.8449,1.8426,1.8477,1.8499,1.8398,1.8398,1.8398,1.8398,1.8398,1.8152,1.8179,1.8206,1.828,1.8335,1.8371,1.8433,1.8453,1.8473,1.8494,1.8523,1.8523,1.8527,1.8507,1.8507,1.8507,1.8507,1.8507,1.8508,1.8193,1.8223,1.8272,1.833,1.8365,1.8413,1.8467,1.8502,1.8547,1.8558,1.8558,1.8566,1.8478,1.8456,1.8511,1.8511,1.851,1.851,1.8509,1.8287,1.8269,1.8344,1.8379,1.845,1.8504,1.8529,1.8601,1.8633,1.8664,1.8667,1.8598,1.8601,1.8595,1.8577,1.8661,1.8661,1.8661,1.8661,1.8329,1.8332,1.8414,1.8469,1.8525,1.8556,1.8643,1.8686,1.8729,1.8751,1.8742,1.872,1.8712,1.8719,1.8711,1.8694,1.8806,1.8806,1.8806,1.8389,1.8399,1.8467,1.8507,1.8564,1.8614,1.8697,1.8762,1.8806,1.8813,1.8769,1.8763,1.8728,1.8714,1.8719,1.8705,1.8676,0,0]}]]